TimeMDT,TemperatureF,Dew PointF,Humidity,Sea Level PressureIn,VisibilityMPH,Wind Direction,Wind SpeedMPH,Gust SpeedMPH,PrecipitationIn,Events,Conditions,WindDirDegrees,DateUTC
12:55 AM,19.9,3.0,48,30.24,10.0,ESE,4.6,-,N/A,,Clear,120,2013-03-25 06:55:00
1:55 AM,18.0,3.0,52,30.25,10.0,Calm,Calm,-,N/A,,Clear,0,2013-03-25 07:55:00
2:55 AM,17.1,3.0,54,30.25,10.0,Calm,Calm,-,N/A,,Clear,0,2013-03-25 08:55:00
3:55 AM,15.1,3.0,59,30.25,10.0,SE,3.5,-,N/A,,Clear,130,2013-03-25 09:55:00
4:55 AM,12.9,1.9,62,30.25,10.0,Calm,Calm,-,N/A,,Clear,0,2013-03-25 10:55:00
5:55 AM,14.0,1.9,59,30.25,10.0,Calm,Calm,-,N/A,,Clear,0,2013-03-25 11:55:00
6:55 AM,15.1,1.9,56,30.25,10.0,Calm,Calm,-,N/A,,Clear,0,2013-03-25 12:55:00
7:55 AM,12.0,1.9,64,30.31,10.0,Calm,Calm,-,N/A,,Clear,0,2013-03-25 13:55:00
8:55 AM,19.0,6.1,57,30.30,10.0,Calm,Calm,-,N/A,,Clear,0,2013-03-25 14:55:00
9:55 AM,23.0,5.0,46,30.29,10.0,Calm,Calm,-,N/A,,Clear,0,2013-03-25 15:55:00
10:55 AM,28.0,7.0,41,30.25,10.0,Calm,Calm,-,N/A,,Clear,0,2013-03-25 16:55:00
11:55 AM,30.9,7.0,37,30.22,10.0,Calm,Calm,-,N/A,,Clear,0,2013-03-25 17:55:00
12:55 PM,35.1,7.0,31,30.18,10.0,Calm,Calm,-,N/A,,Clear,0,2013-03-25 18:55:00
1:55 PM,39.0,7.0,27,30.13,10.0,Calm,Calm,-,N/A,,Clear,0,2013-03-25 19:55:00
2:55 PM,43.0,6.1,22,30.09,10.0,Variable,3.5,-,N/A,,Clear,0,2013-03-25 20:55:00
3:55 PM,45.0,6.1,20,30.06,10.0,Calm,Calm,-,N/A,,Overcast,0,2013-03-25 21:55:00
4:55 PM,45.0,6.1,20,30.04,10.0,Variable,3.5,-,N/A,,Overcast,0,2013-03-25 22:55:00
5:55 PM,46.0,8.1,21,30.03,10.0,Calm,Calm,-,N/A,,Overcast,0,2013-03-25 23:55:00
6:55 PM,45.0,9.0,23,30.01,10.0,Calm,Calm,-,N/A,,Overcast,0,2013-03-26 00:55:00
7:55 PM,42.1,9.0,26,30.04,10.0,SE,4.6,-,N/A,,Overcast,130,2013-03-26 01:55:00
8:55 PM,39.0,10.9,32,30.02,10.0,South,10.4,-,N/A,,Scattered Clouds,170,2013-03-26 02:55:00
9:55 PM,36.0,10.9,36,30.04,10.0,Calm,Calm,-,N/A,,Clear,0,2013-03-26 03:55:00
10:55 PM,30.0,12.0,47,30.05,10.0,NNW,4.6,-,N/A,,Clear,330,2013-03-26 04:55:00
11:55 PM,30.9,12.0,46,30.04,10.0,NW,6.9,-,N/A,,Clear,310,2013-03-26 05:55:00